Regional Weather Roundup
Issued by NWS Wakefield, VA

Home | Current Version | Previous Version | Text Only | Print | Product List | Glossary On
Versions: 1 2 3 4 5 6 7 8 9 10 11 12 13 14 15 16 17 18 19 20 21 22 23 24 25 26 27 28 29 30 31 32 33 34 35 36 37 38 39 40 41 42 43 44 45 46 47 48 49 50
000
ASUS41 KAKQ 290414
RWRAKQ

REGIONAL WEATHER ROUNDUP
NATIONAL WEATHER SERVICE WAKEFIELD VA
1200 AM EDT SUN MAR 29 2015

Note: "fair" indicates few or no clouds below 12,000 feet with no
significant weather and/or obstructions to visibility. * = Denotes
station may not report precipitation (e.g., rain,snow,etc.),
thunder or fog.

VAZ042-051-052>054-056-290500-
NORTHERN VIRGINIA

CITY           SKY/WX    TMP DP  RH WIND       PRES   REMARKS
WASH NATIONAL  CLEAR     32   7  35 NW14      30.26R WCI  22
DULLES         CLEAR     28   7  41 NW10      30.25R WCI  19
FORT BELVOIR   CLEAR     30   7  38 NW10      30.26R WCI  21
QUANTICO       CLEAR     31   6  35 N9        30.29R
FREDERICKSBRG* CLEAR     30  12  47 NW3       30.27S
STAFFORD*      CLEAR     27   8  44 CALM      30.32R
WARRENTON      CLEAR     27  17  67 NW5       30.26R
CULPEPER*      CLEAR     23  18  80 CALM      30.27R
MANASSAS*      CLEAR     27  12  54 N6        30.27R
LEESBURG*      CLEAR     30  12  47 NW13G18   30.26R WCI  20
WINCHESTER     CLEAR     28   1  31 NW10      30.25R WCI  19
FRONT ROYAL*   FAIR      28   9  43 NW6G18    30.24R
LURAY*         FAIR      32  10  40 NW10G20   30.24R WCI  24
$$

VAZ048-049-060>072-079>083-290500-
CENTRAL AND SOUTH CENTRAL VIRGINIA

CITY           SKY/WX    TMP DP  RH WIND       PRES   REMARKS
RICHMOND       CLEAR     30   9  41 NW5       30.27R
CHESTERFIELD*  NOT AVBL
PETERSBURG*    CLEAR     29  11  46 NW5       30.29R
HANOVER        CLEAR     27   9  46 CALM      30.28R
TAPPAHANNOCK*  CLEAR     30   6  35 W3        30.27R
QUINTON*       FAIR      27  10  50 W3        30.28R
CHARLOTTSVILLE CLEAR     27   9  46 CALM      30.25R
GORDONSVILLE*  FAIR      28   9  44 W5        30.26R
ORANGE*        CLEAR     27  16  63 CALM      30.27R
LOUISA*        CLEAR     25  10  54 W5        30.24S
BUMPASS*       FAIR      25  10  52 CALM      30.26R
FARMVILLE*     CLEAR     29  11  47 CALM      30.28R
CREWE*         FAIR      28   8  43 MISG      30.28R
FORT PICKETT*  FAIR      28  11  49 NW7       30.27R
CHASE CITY*    FAIR      32  12  43 N7        30.27R
CLARKSVILLE*   FAIR      32  10  40 N9        30.27R
SOUTH HILL*    FAIR      26  14  61 NW3       30.33R
LAWRENCEVILLE* FAIR      27  15  61 CALM      30.26R
EMPORIA*       CLEAR     27  19  74 CALM      30.29R
$$

VAZ088>098-290500-
SOUTHEAST VIRGINIA

CITY           SKY/WX    TMP DP  RH WIND       PRES   REMARKS
NORFOLK        CLEAR     33   9  36 NW10G21   30.25R WCI  25
VIRGINIA BEACH CLEAR     35  10  35 NW15G28   30.23S
NORFOLK NAVAL  CLEAR     36  10  34 NW15      30.26R
WEST POINT*    CLEAR     32   7  35 NW5       30.28S
SALUDA*        FAIR      32   9  38 NW14G24   30.24S WCI  22
NEWPORT NEWS   CLEAR     34  10  37 NW9       30.26R
LANGLEY AFB    CLEAR     31   9  38 N10       30.25R WCI  22
FORT EUSTIS    CLEAR     33  12  43 N10G17    30.24R WCI  24
WILLIAMSBURG*  CLEAR     30  14  51 NW6       30.27S
HR EXEC AP*    FAIR      32  10  40 N3        30.27R
FRANKLIN*      CLEAR     29  11  46 CALM      30.28R
WAKEFIELD      CLEAR     30  11  45 N3        30.27R
$$

VAZ020-022-025-037-045-290500-
WEST CENTRAL AND SOUTHWEST VIRGINIA

CITY           SKY/WX    TMP DP  RH WIND       PRES   REMARKS
STAUNTON*      CLEAR     26   9  49 W3        30.25R
WAYNESBORO*    FAIR      23   8  52 W6        30.22S
HOT SPRINGS VA CLEAR     15   5  65 NW12G18   30.06R WCI   2
LYNCHBURG      CLEAR     24  11  57 CALM      30.27R
DANVILLE       CLEAR     31  11  43 N5        30.28R
SOUTH BOSTON*  FAIR      29  10  44 NW3       30.28S
MARTINSVILLE   CLEAR     25  14  65 CALM      30.30R
ROANOKE        CLEAR     28   5  37 W8G18     30.28R
BLACKSBURG     CLEAR     24   5  43 NW9       30.25R
DUBLIN*        CLEAR     26   8  46 CALM      30.25R
MARION*        CLEAR     26   6  41 W7        30.24R
HILLSVILLE*    CLEAR     25   7  46 NW13      30.19R WCI  13
RICHLANDS*     FAIR      24   4  43 N6        30.23R
WISE*          CLEAR     27  10  50 N5        30.24S
ABINGDON*      CLEAR     31   7  36 N5        30.25S
$$

MDZ021>025-VAZ099-100-290500-
SOUTHERN MARYLAND AND THE DELMARVA PENINSULA

CITY           SKY/WX    TMP DP  RH WIND       PRES   REMARKS
PATUXENT RIVER CLEAR     30   7  37 W15       30.24R WCI  19
BAY BRIDGE APT   N/A     32  12  43 NW15      30.22R WCI  22
LEONARDTOWN    CLEAR     30   5  34 W9        30.26R
DOVER          MOCLDY    29  19  64 NW10      30.18R WCI  20
GEORGETOWN     CLEAR     30  12  47 NW6       30.19R
EASTON         CLEAR     32  15  49 NW10G20   30.24S WCI  23
CAMBRIDGE      CLEAR     32  12  43 NW8G17    30.22R
SALISBURY      CLEAR     29  11  47 NW9       30.20R
OCEAN CITY     CLEAR     29  15  56 NW6       30.19S
WALLOPS ISLAND CLEAR     29  12  49 NW10      30.22R WCI  20
ACCOMACK*      CLOUDY    32  10  40 NW13G24   30.22R WCI  22
$$

NCZ012>017-030>032-290500-
NORTH CENTRAL AND EASTERN NORTH CAROLINA

CITY           SKY/WX    TMP DP  RH WIND       PRES   REMARKS
ROANOKE RAPIDS FAIR      30  14  51 N7        30.28R
RALEIGH        CLEAR     33  10  38 NE7       30.27R
ELIZABETH CITY CLEAR     33  16  49 N15       30.25R WCI  23
AHOSKIE*       CLEAR     30  14  51 N5        30.28R
EDENTON*       CLEAR     33  17  52 N12       30.26R WCI  24
CURRITUCK*     CLEAR     33  10  39 N10G16    30.25R WCI  24
KILL DEVIL HLS CLEAR     35  16  47 NW9       30.22R
MANTEO         CLEAR     35  18  50 N17G24    30.24R WCI  25
CAPE HATTERAS  CLEAR     39  18  42 VRB7      30.21R
TARBORO*       FAIR      34  16  47 N5        30.29R
GOLDSBORO      CLEAR     37  17  45 NW8       30.24R
WASHINGTON     CLEAR     33  20  58 N9        30.26R
GREENVILLE     CLEAR     34  19  55 N7        30.27R
NEW BERN       CLEAR     37  19  48 N6        30.25R
WILMINGTON     CLEAR     37  27  67 CALM      30.24R
$$

VAZ048-290500-
ELSEWHERE

CITY           SKY/WX    TMP DP  RH WIND       PRES   REMARKS
HARRISBURG PA  CLEAR     27   3  35 N9        30.23R
BALTIMORE      PTCLDY    27   9  46 W9        30.22R
ANNAPOLIS      CLEAR     30  11  45 NW8       30.22R
ANDREWS AFB    CLEAR     29   7  38 NW14      30.22R WCI  18
PHILADELPHIA   MOCLDY    29   7  39 N16       30.19R WCI  17
HENDERSON NC   CLEAR     31   8  38 N3        30.27R
GREENSBORO     CLEAR     31   8  38 CALM      30.25R
ROCKY MOUNT    CLEAR     34  14  43 N10       30.28R
$$

VAZ100-290500-
MARINE

STATION/POSITION TIME  TEMP    WIND        PRES    WAVE   SWELL
                       AIR SEA DIR/SP/G            HT/PER HT/PER
                 (UTC) (F)     (DEG/KT/KT) (MB)    (FT/S) (FT/S)
BRANDYWINE LGT   0300          330/ 17/ 24 1021.2R
CAPE MAY NJ      0300   32 44  310/  3/ 17 1020.8R
LEWES DE         0300   32 42  310/ 20/ 23 1021.5R
15NM E FENWICK I 0350   33 39              1020.8R   5/ 5
OCEAN-CITY-INLET 0300          330/  9/ 12 1021.7R
WACHAPREAGUE VA  0300   33 47  320/  8/ 15 1022.9R
THOMAS POINT MD  0400                        N/A
COVE POINT MD    0300   30     320/ 12/ 19 1023.2R
SOLOMONS ISLAND  0300      43                N/A
BISHOPS HEAD MD  0300          330/ 14/ 18 1022.8R
PINEY POINT MD   0300          340/ 21/ 26   N/A
CAMBRIDGE MD     0300   32 44  300/ 14/ 21 1022.9R
LEWISETTA VA     0300   33 44              1023.8R
RAPPAHANNOCK LGT 0300          310/ 24/ 27 1023.7R
STINGRAY PT      0400   34 44  320/ 17/ 23   N/A     2/ 2
YORK RVR RNG VA  0300   33     330/ 19/ 23 1023.5R
YORKTOWN VA      0300   33 46  330/ 13/ 16 1024.0R
DOMINION TERM VA 0300   34     350/  7/ 15 1024.1R
KIPTOPEKE VA     0300      48  320/ 23/ 26   N/A
CHES BAY BRIDGE  0300          320/ 24/ 32 1023.4R
CAPE HENRY VA    0300   34     320/ 24/ 31 1022.3R
CHESAPEAKE LGHT  0300   34     330/ 26/ 28 1023.5R
WILLOUBY STN VA  0300   33     340/ 18/ 21 1024.5R
S CRANEY ISL VA  0300          340/ 12/ 16 1023.9R
CAPE HENRY BUOY  0328      40                N/A     5/ 4
1ST LANDING BUOY 0400   35     330/ 23/ 31 1023.5R   4/ 3
OFFSHORE WE BUOY 0311      40                N/A     6/ 5   2/10
64NM E OF VA BCH 0350   37 56  330/ 21/ 27 1022.1R   6/ 6   2/ 9
DUCK PIER NC     0300   36 42  350/ 22/ 24 1021.7R
44056 DUCK FRF   0311      41                N/A     5/ 5
OREGON INLET NC  0300   37 46  350/ 13/ 18 1022.6R
HATTERAS NC      0300          360/ 14/ 17 1022.8R
CAPE LOOKOUT NC  0400   42     360/ 12/ 16 1023.2R
$$


USA.gov is the U.S. government's official web portal to all federal, state and local government web resources and services.